Jefferson, NC

1:53 PM EST on December 15, 2019 (GMT -0500)
Ashe County

Weather History for KGEV - August, 2019

Change the Weather History Date:

Tuesday, August 27, 2019

  Actual Average Record
Temperature  
Mean Temperature 61 °F -  
Max Temperature 65 °F 79 °F 88 °F (1987)
Min Temperature 57 °F 57 °F 46 °F (1968)
Degree Days  
Heating Degree Days 4    
Growing Degree Days 11 (Base 50)    
Moisture  
Dew Point 60 °F    
Average Humidity 99    
Maximum Humidity 100    
Minimum Humidity 92    
Precipitation  
Precipitation 0.11 in - - ()
Sea Level Pressure  
Sea Level Pressure 30.11 in    
Wind  
Wind Speed 1 mph ()    
Max Wind Speed 5 mph    
Max Gust Speed -    
Visibility 4.3 miles    
Events Fog , Rain    
Averages and records for this station are not official NWS values.
T = Trace of Precipitation, MM = Missing Value Source: Averaged Metar Reports

Daily Weather History Graph

Daily Weather History Graph

Search for Another Location

Airport or City:

Astronomy

Aug. 27, 2019 Rise Set
Actual Time 6:52 AM EDT 8:00 PM EDT
Civil Twilight 6:26 AM EDT 8:27 PM EDT
Nautical Twilight 5:54 AM EDT 8:59 PM EDT
Astronomical Twilight 5:21 AM EDT 9:31 PM EDT
Moon 3:22 AM EDT (8/27) 6:14 PM EDT (8/27)
Length of Visible Light 14h 01m
Length of Day
13h 08m
Waning Crescent, 11% of the Moon is Illuminated
Aug 27
Waning Crescent
Aug 30
New
Sep 5
First Quarter
Sep 14
Full
Sep 21
Last Quarter

Hourly Weather History & Observations

Time (EDT) Temp. Dew Point Humidity Pressure Visibility Wind Dir Wind Speed Gust Speed Precip Events Conditions
12:15 AM 58.6 °F 58.5 °F 99% 30.18 in 7.0 mi Calm Calm - N/A Rain Light Rain
12:35 AM 58.5 °F 58.3 °F 99% 30.17 in 7.0 mi Calm Calm - N/A   Drizzle
12:55 AM 58.3 °F 58.1 °F 99% 30.17 in 10.0 mi WNW 3.5 mph - N/A Rain Light Rain
1:15 AM 58.3 °F 57.9 °F 99% 30.17 in 10.0 mi Calm Calm - N/A   Light Drizzle
1:35 AM 58.5 °F 57.7 °F 97% 30.16 in 7.0 mi Calm Calm - N/A Rain Light Rain
1:55 AM 58.6 °F 58.1 °F 98% 30.16 in 7.0 mi Calm Calm - N/A Rain Rain
2:15 AM 58.3 °F 58.1 °F 99% 30.15 in 4.0 mi Calm Calm - N/A   Heavy Drizzle
2:35 AM 58.1 °F 58.1 °F 100% 30.14 in 2.5 mi Calm Calm - N/A   Heavy Drizzle
2:55 AM 57.7 °F 57.7 °F 100% 30.14 in 1.8 mi Calm Calm - 0.01 in   Drizzle
3:15 AM 57.7 °F 57.7 °F 100% 30.13 in 1.0 mi Calm Calm - N/A   Drizzle
3:35 AM 57.6 °F 57.6 °F 100% 30.12 in 0.5 mi Calm Calm - N/A   Drizzle
3:55 AM 57.4 °F 57.4 °F 100% 30.11 in 0.5 mi WNW 4.6 mph - N/A   Light Drizzle
4:35 AM 57.6 °F 57.6 °F 100% 30.11 in 2.5 mi Calm Calm - N/A   Overcast
4:55 AM 57.6 °F 57.6 °F 100% 30.10 in 1.8 mi Calm Calm - N/A   Overcast
5:15 AM 57.7 °F 57.7 °F 100% 30.11 in 1.0 mi WNW 3.5 mph - N/A   Overcast
5:35 AM 57.7 °F 57.7 °F 100% 30.11 in 1.0 mi Calm Calm - N/A   Overcast
5:55 AM 57.7 °F 57.7 °F 100% 30.12 in 3.0 mi Calm Calm - N/A   Overcast
6:15 AM 57.6 °F 57.6 °F 100% 30.13 in 4.0 mi Calm Calm - N/A   Overcast
6:35 AM 57.9 °F 57.9 °F 100% 30.13 in 2.0 mi Calm Calm - N/A   Overcast
6:55 AM 58.1 °F 58.1 °F 100% 30.13 in 3.0 mi Calm Calm - N/A   Overcast
7:15 AM 58.1 °F 58.1 °F 100% 30.13 in 1.8 mi Calm Calm - N/A   Overcast
7:35 AM 58.1 °F 58.1 °F 100% 30.13 in 3.0 mi Calm Calm - N/A   Light Drizzle
7:55 AM 58.1 °F 58.1 °F 100% 30.13 in 3.0 mi Calm Calm - N/A   Overcast
8:15 AM 58.3 °F 58.3 °F 100% 30.13 in 2.0 mi Calm Calm - 0.01 in Rain Rain
8:35 AM 58.5 °F 58.5 °F 100% 30.14 in 1.2 mi Calm Calm - 0.01 in Rain Heavy Rain
8:55 AM 58.5 °F 58.5 °F 100% 30.13 in 1.0 mi Calm Calm - 0.06 in Rain Rain
9:15 AM 59.0 °F 59.0 °F 100% 30.13 in 1.0 mi Calm Calm - 0.03 in Rain Rain
9:35 AM 59.0 °F 59.0 °F 100% 30.13 in 1.5 mi Calm Calm - 0.03 in Rain Rain
9:55 AM 59.5 °F 59.5 °F 100% 30.13 in 2.0 mi WNW 3.5 mph - 0.04 in Rain Rain
10:15 AM 59.9 °F 59.9 °F 100% 30.13 in 2.5 mi WNW 4.6 mph - N/A Rain Light Rain
10:35 AM 59.9 °F 59.9 °F 100% 30.14 in 3.0 mi Calm Calm - N/A   Overcast
10:55 AM 60.3 °F 60.3 °F 100% 30.13 in 1.0 mi WNW 3.5 mph - N/A   Overcast
11:15 AM 60.4 °F 60.4 °F 100% 30.13 in 0.2 mi WNW 3.5 mph - N/A Fog Fog
11:35 AM 60.3 °F 60.3 °F 100% 30.14 in 0.5 mi WNW 4.6 mph - N/A Fog Fog
11:55 AM 60.3 °F 60.3 °F 100% 30.14 in 1.0 mi WNW 4.6 mph - N/A   Overcast
12:15 PM 60.8 °F 60.8 °F 100% 30.13 in 1.8 mi WNW 3.5 mph - N/A   Overcast
12:35 PM 60.8 °F 60.8 °F 100% 30.13 in 3.0 mi Calm Calm - N/A   Overcast
12:55 PM 61.0 °F 61.0 °F 100% 30.13 in 7.0 mi WNW 4.6 mph - N/A   Overcast
1:15 PM 61.3 °F 61.2 °F 99% 30.12 in 7.0 mi Calm Calm - N/A   Overcast
1:35 PM 61.5 °F 61.3 °F 99% 30.11 in 5.0 mi Calm Calm - N/A   Overcast
1:55 PM 62.1 °F 61.5 °F 98% 30.11 in 10.0 mi Calm Calm - N/A   Overcast
2:15 PM 62.8 °F 61.9 °F 97% 30.11 in 7.0 mi WNW 3.5 mph - N/A   Overcast
2:35 PM 62.6 °F 61.5 °F 96% 30.11 in 10.0 mi Calm Calm - N/A   Overcast
2:55 PM 63.7 °F 62.4 °F 96% 30.10 in 10.0 mi WNW 3.5 mph - N/A   Overcast
3:15 PM 63.9 °F 62.2 °F 94% 30.09 in 10.0 mi WNW 3.5 mph - N/A   Overcast
3:35 PM 64.0 °F 62.2 °F 94% 30.09 in 10.0 mi Calm Calm - N/A   Overcast
3:55 PM 64.2 °F 62.6 °F 94% 30.08 in 10.0 mi Calm Calm - N/A   Overcast
4:55 PM 65.3 °F 63.0 °F 92% 30.07 in 10.0 mi Calm Calm - N/A   Overcast
5:15 PM 64.9 °F 62.8 °F 93% 30.07 in 10.0 mi Calm Calm - N/A   Overcast
5:55 PM 65.5 °F 63.3 °F 93% 30.07 in 10.0 mi Calm Calm - N/A   Overcast
6:15 PM 64.6 °F 63.0 °F 94% 30.07 in 10.0 mi Calm Calm - N/A   Overcast
6:35 PM 64.9 °F 63.3 °F 94% 30.06 in 10.0 mi WNW 3.5 mph - N/A   Overcast
6:55 PM 64.8 °F 63.1 °F 94% 30.06 in 10.0 mi Calm Calm - N/A   Overcast
7:15 PM 64.4 °F 63.5 °F 97% 30.06 in 10.0 mi Calm Calm - N/A   Overcast
7:35 PM 63.7 °F 63.0 °F 97% 30.06 in 10.0 mi Calm Calm - N/A   Overcast
7:55 PM 63.1 °F 62.8 °F 99% 30.07 in 10.0 mi Calm Calm - N/A   Overcast
8:15 PM 62.8 °F 62.6 °F 99% 30.07 in 7.0 mi Calm Calm - N/A   Overcast
8:35 PM 62.4 °F 62.4 °F 100% 30.07 in 1.5 mi Calm Calm - N/A   Overcast
8:55 PM 62.2 °F 62.2 °F 100% 30.07 in 0.5 mi Calm Calm - N/A Fog Fog
9:15 PM 62.2 °F 62.2 °F 100% 30.07 in 0.5 mi Calm Calm - N/A Fog Fog
9:35 PM 62.1 °F 62.1 °F 100% 30.08 in 0.5 mi Calm Calm - N/A Fog Fog
9:55 PM 62.2 °F 62.2 °F 100% 30.09 in 0.5 mi Calm Calm - N/A Fog Fog
10:15 PM 62.1 °F 62.1 °F 100% 30.09 in 0.5 mi Calm Calm - N/A Fog Fog
10:35 PM 62.1 °F 62.1 °F 100% 30.09 in 0.5 mi Calm Calm - N/A Fog Fog
10:55 PM 62.1 °F 62.1 °F 100% 30.09 in 0.5 mi Calm Calm - N/A Fog Fog
11:15 PM 62.1 °F 62.1 °F 100% 30.09 in 0.2 mi Calm Calm - N/A Fog Fog
11:35 PM 61.9 °F 61.9 °F 100% 30.08 in 0.5 mi Calm Calm - N/A Fog Fog
11:55 PM 61.9 °F 61.9 °F 100% 30.09 in 0.5 mi Calm Calm - N/A Fog Fog